Location: Casilda
(33.0440°S, 61.1680°W)
Time: 20:16:10
(UTC-03:00)

ISS - Pass Details

Date: 13 April 2026
Orbit: 416 x 425 km, 51.6° (Epoch: 18 April)

Event Time Altitude Azimuth Distance (km) Brightness Sun altitude
Rises 20:32:55 0° 261° (W) 2,382 1.5 -23.4°
Reaches altitude 10° 20:36:52 10° 215° (SW) 1,522 -0.4 -24.3°
Maximum altitude 20:37:21 10° 207° (SSW) 1,508 -0.6 -24.4°
Drops below altitude 10° 20:37:51 10° 199° (SSW) 1,522 -0.7 -24.5°
Enters shadow 20:38:16 10° 192° (SSW) 1,556 -0.7 -24.6°
